Orr, MN

7:36 PM CDT on April 28, 2017 (GMT -0500)
Orr Regional

Weather History for KORB - September, 2012

Change the Weather History Date:

Sunday, September 30, 2012

  Actual Average Record
Temperature  
Mean Temperature 60 °F -  
Max Temperature 77 °F 55 °F 80 °F (2005)
Min Temperature 42 °F 35 °F 28 °F (2015)
Degree Days  
Heating Degree Days 6    
Growing Degree Days 10 (Base 50)    
Moisture  
Dew Point 36 °F    
Average Humidity 48    
Maximum Humidity 76    
Minimum Humidity 20    
Precipitation  
Precipitation 0.00 in - - ()
Sea Level Pressure  
Sea Level Pressure 29.92 in    
Wind  
Wind Speed 4 mph (SSE)    
Max Wind Speed 10 mph    
Max Gust Speed -    
Visibility 10 miles    
Events      
Averages and records for this station are not official NWS values.
T = Trace of Precipitation, MM = Missing Value Source: NWS Daily Summary

Daily Weather History Graph

Daily Weather History Graph

Search for Another Location

Airport or City:

Trip Planner

Search our weather history database for the weather conditions in past years. The results will help you decide how hot, cold, wet, or windy it might be!

Date:

Astronomy

Sep. 30, 2012 Rise Set
Actual Time 7:09 AM CDT 6:51 PM CDT
Civil Twilight 6:39 AM CDT 7:22 PM CDT
Nautical Twilight 6:02 AM CDT 7:58 PM CDT
Astronomical Twilight 5:26 AM CDT 8:35 PM CDT
Moon 6:47 PM CDT (9/30) 7:47 AM CDT (9/30)
Length of Visible Light 12h 43m
Length of Day
11h 41m
Full, 100% of the Moon is Illuminated
Sep 30
Full
Oct 8
Last Quarter
Oct 15
New
Oct 21
First Quarter
Oct 29
Full

Hourly Weather History & Observations

Time (CDT) Temp. Windchill Dew Point Humidity Pressure Visibility Wind Dir Wind Speed Gust Speed Precip Events Conditions
12:13 AM 48.2 °F - 37.4 °F 66% 30.03 in 10.0 mi ESE 3.5 mph - N/A   Clear
12:33 AM 48.2 °F - 37.4 °F 66% 30.03 in 10.0 mi Calm Calm - N/A   Clear
12:53 AM 48.2 °F - 37.4 °F 66% 30.03 in 10.0 mi Calm Calm - N/A   Clear
1:13 AM 48.2 °F - 37.4 °F 66% 30.02 in 10.0 mi Calm Calm - N/A   Clear
1:33 AM 46.4 °F 45.2 °F 37.4 °F 71% 30.03 in 10.0 mi SE 3.5 mph - N/A   Clear
1:53 AM 46.4 °F 44.3 °F 35.6 °F 66% 30.03 in 10.0 mi SE 4.6 mph - N/A   Clear
2:13 AM 48.2 °F - 35.6 °F 62% 30.02 in 10.0 mi SE 5.8 mph - N/A   Clear
2:33 AM 46.4 °F - 35.6 °F 66% 30.02 in 10.0 mi Calm Calm - N/A   Clear
2:53 AM 44.6 °F - 35.6 °F 71% 30.02 in 10.0 mi Calm Calm - N/A   Clear
3:13 AM 44.6 °F - 35.6 °F 71% 30.02 in 10.0 mi Calm Calm - N/A   Clear
3:33 AM 44.6 °F 43.1 °F 35.6 °F 71% 30.01 in 10.0 mi SE 3.5 mph - N/A   Clear
3:53 AM 44.6 °F 43.1 °F 35.6 °F 71% 30.01 in 10.0 mi SSE 3.5 mph - N/A   Clear
4:13 AM 42.8 °F - 35.6 °F 76% 30.01 in 10.0 mi Calm Calm - N/A   Clear
4:53 AM 44.6 °F 43.1 °F 35.6 °F 71% 30.01 in 10.0 mi SSE 3.5 mph - N/A   Clear
5:13 AM 42.8 °F 41.1 °F 35.6 °F 76% 30.00 in 10.0 mi SSE 3.5 mph - N/A   Clear
5:33 AM 42.8 °F 41.1 °F 35.6 °F 76% 30.00 in 10.0 mi SE 3.5 mph - N/A   Clear
5:53 AM 42.8 °F 40.1 °F 35.6 °F 76% 30.00 in 10.0 mi SSE 4.6 mph - N/A   Clear
6:13 AM 42.8 °F 41.1 °F 35.6 °F 76% 29.99 in 10.0 mi SE 3.5 mph - N/A   Clear
6:33 AM 42.8 °F 40.1 °F 35.6 °F 76% 29.99 in 10.0 mi SE 4.6 mph - N/A   Clear
6:53 AM 42.8 °F 40.1 °F 35.6 °F 76% 29.99 in 10.0 mi SE 4.6 mph - N/A   Clear
7:13 AM 42.8 °F 40.1 °F 35.6 °F 76% 29.99 in 10.0 mi SE 4.6 mph - N/A   Clear
7:33 AM 42.8 °F 39.3 °F 35.6 °F 76% 29.99 in 10.0 mi SE 5.8 mph - N/A   Clear
7:53 AM 42.8 °F 40.1 °F 35.6 °F 76% 29.99 in 10.0 mi SE 4.6 mph - N/A   Clear
8:13 AM 44.6 °F 42.2 °F 35.6 °F 71% 29.98 in 10.0 mi SE 4.6 mph - N/A   Clear
8:33 AM 46.4 °F 45.2 °F 35.6 °F 66% 29.98 in 10.0 mi SSE 3.5 mph - N/A   Clear
8:53 AM 48.2 °F - 35.6 °F 62% 29.98 in 10.0 mi SSE 5.8 mph - N/A   Clear
9:13 AM 50.0 °F - 35.6 °F 58% 29.98 in 10.0 mi SSE 5.8 mph - N/A   Clear
9:33 AM 53.6 °F - 35.6 °F 51% 29.98 in 10.0 mi SSE 8.1 mph - N/A   Clear
9:53 AM 55.4 °F - 33.8 °F 44% 29.97 in 10.0 mi SSE 6.9 mph - N/A   Clear
10:13 AM 57.2 °F - 33.8 °F 41% 29.98 in 10.0 mi SSE 8.1 mph - N/A   Clear
10:33 AM 60.8 °F - 33.8 °F 36% 29.97 in 10.0 mi Calm Calm - N/A   Clear
10:53 AM 62.6 °F - 30.2 °F 30% 29.96 in 10.0 mi SSE 8.1 mph - N/A   Clear
11:13 AM 64.4 °F - 28.4 °F 26% 29.95 in 10.0 mi SSE 9.2 mph - N/A   Clear
11:33 AM 66.2 °F - 30.2 °F 26% 29.94 in 10.0 mi SSE 5.8 mph - N/A   Clear
11:53 AM 68.0 °F - 30.2 °F 24% 29.94 in 10.0 mi South 4.6 mph - N/A   Clear
12:14 PM 69.8 °F - 30.2 °F 23% 29.94 in 10.0 mi SSE 4.6 mph - N/A   Clear
12:33 PM 71.6 °F - 30.2 °F 22% 29.93 in 10.0 mi SSE 10.4 mph - N/A   Clear
12:53 PM 71.6 °F - 30.2 °F 22% 29.93 in 10.0 mi South 6.9 mph - N/A   Clear
1:13 PM 73.4 °F - 30.2 °F 20% 29.91 in 10.0 mi Calm Calm - N/A   Clear
1:33 PM 73.4 °F - 32.0 °F 22% 29.90 in 10.0 mi South 3.5 mph - N/A   Clear
1:53 PM 73.4 °F - 32.0 °F 22% 29.90 in 10.0 mi Calm Calm - N/A   Clear
2:13 PM 75.2 °F - 33.8 °F 22% 29.89 in 10.0 mi Calm Calm - N/A   Clear
2:33 PM 75.2 °F - 33.8 °F 22% 29.87 in 10.0 mi South 4.6 mph - N/A   Clear
2:53 PM 75.2 °F - 33.8 °F 22% 29.87 in 10.0 mi South 3.5 mph - N/A   Clear
3:13 PM 77.0 °F - 33.8 °F 21% 29.87 in 10.0 mi SSE 5.8 mph - N/A   Clear
3:33 PM 77.0 °F - 33.8 °F 21% 29.86 in 10.0 mi South 5.8 mph - N/A   Clear
3:53 PM 77.0 °F - 33.8 °F 21% 29.85 in 10.0 mi South 8.1 mph - N/A   Clear
4:13 PM 77.0 °F - 35.6 °F 22% 29.85 in 10.0 mi Calm Calm - N/A   Clear
4:33 PM 75.2 °F - 35.6 °F 24% 29.84 in 10.0 mi SSE 8.1 mph - N/A   Clear
4:53 PM 75.2 °F - 35.6 °F 24% 29.84 in 10.0 mi SSE 5.8 mph - N/A   Clear
5:13 PM 75.2 °F - 35.6 °F 24% 29.84 in 10.0 mi SSE 5.8 mph - N/A   Clear
5:33 PM 73.4 °F - 37.4 °F 27% 29.84 in 10.0 mi Calm Calm - N/A   Clear
5:53 PM 73.4 °F - 37.4 °F 27% 29.84 in 10.0 mi SSE 3.5 mph - N/A   Clear
6:13 PM 71.6 °F - 37.4 °F 29% 29.83 in 10.0 mi SSE 6.9 mph - N/A   Clear
6:33 PM 69.8 °F - 37.4 °F 31% 29.83 in 10.0 mi SSE 3.5 mph - N/A   Clear
6:53 PM 66.2 °F - 37.4 °F 35% 29.83 in 10.0 mi SSE 4.6 mph - N/A   Clear
7:14 PM 64.4 °F - 39.2 °F 40% 29.83 in 10.0 mi SSE 5.8 mph - N/A   Clear
7:33 PM 64.4 °F - 39.2 °F 40% 29.83 in 10.0 mi SSE 6.9 mph - N/A   Clear
7:53 PM 64.4 °F - 37.4 °F 37% 29.82 in 10.0 mi SSE 5.8 mph - N/A   Clear
8:13 PM 62.6 °F - 39.2 °F 42% 29.82 in 10.0 mi Calm Calm - N/A   Clear
8:33 PM 62.6 °F - 39.2 °F 42% 29.82 in 10.0 mi SSE 5.8 mph - N/A   Clear
8:53 PM 60.8 °F - 39.2 °F 45% 29.82 in 10.0 mi SSE 5.8 mph - N/A   Clear
9:13 PM 59.0 °F - 39.2 °F 48% 29.82 in 10.0 mi SSE 6.9 mph - N/A   Clear
9:34 PM 59.0 °F - 39.2 °F 48% 29.82 in 10.0 mi SSE 5.8 mph - N/A   Clear
9:53 PM 57.2 °F - 39.2 °F 51% 29.81 in 10.0 mi SSE 5.8 mph - N/A   Clear
10:13 PM 57.2 °F - 41.0 °F 55% 29.81 in 10.0 mi SSE 6.9 mph - N/A   Clear
10:33 PM 57.2 °F - 41.0 °F 55% 29.81 in 10.0 mi SSE 6.9 mph - N/A   Clear
10:53 PM 55.4 °F - 41.0 °F 58% 29.81 in 10.0 mi South 5.8 mph - N/A   Clear
11:33 PM 55.4 °F - 41.0 °F 58% 29.81 in 10.0 mi South 8.1 mph - N/A   Clear
11:53 PM 53.6 °F - 41.0 °F 62% 29.81 in 10.0 mi South 6.9 mph - N/A   Clear